Stations météo

réclame
Mon MeteoGroup
Kiruna Airport, Suède (2044): Température de l'air & dewpoint: 19.02.2018 18:00:00 - 25.02.2018 18:00:00 (CET)Kiruna Airport, Suède (2044): Vitesse du vent: 19.02.2018 18:00:00 - 25.02.2018 18:00:00 (CET)Kiruna Airport, Suède (2044): Direction du vent: 19.02.2018 18:00:00 - 25.02.2018 18:00:00 (CET)Kiruna Airport, Suède (2044): reduced air pressure: 19.02.2018 18:00:00 - 25.02.2018 18:00:00 (CET)Kiruna Airport, Suède (2044): visibility: 19.02.2018 18:00:00 - 25.02.2018 18:00:00 (CET)
Date & Time tt [°C] td [°C] ff [km/h] ff [knt] dd ppp [hPa] vv [km]
25.02.2018 18:00:00 -25,4 -28,0 9 5 SW 1047,5 10
25.02.2018 17:00:00 -22,0 -24,4 13 7 SW 1046,9 10
25.02.2018 16:00:00 -20,7 -23,0 15 8 SW 1046,8 10
25.02.2018 15:00:00 -19,9 -22,0 15 8 SW 1047,2 10
25.02.2018 14:00:00 -20,1 -22,2 11 6 SW 1047,7 10
25.02.2018 13:00:00 -20,7 -23,1 13 7 SSW 1048,2 10
25.02.2018 12:00:00 -22,0 -24,4 21 11 SW 1048,5 10
25.02.2018 11:00:00 -23,4 -25,9 15 8 SW 1049,3 10
25.02.2018 10:00:00 -23,8 -26,3 9 5 SSW 1049,5 10
25.02.2018 09:00:00 -25,8 -28,5 11 6 SW 1049,6 10
25.02.2018 08:00:00 -26,6 -29,3 13 7 SW 1049,6 10
25.02.2018 07:00:00 -27,0 -29,9 13 7 SW 1049,7 10
25.02.2018 06:00:00 -27,0 -29,9 11 6 SSW 1049,9 10
25.02.2018 05:00:00 -26,3 -29,0 11 6 SW 1049,5 10
25.02.2018 04:00:00 -25,5 -28,3 9 5 SW 1049,5 10
25.02.2018 03:00:00 -26,2 -29,0 9 5 SSW 1049,8 10
25.02.2018 02:00:00 -25,7 -28,4 9 5 SW 1049,3 10
25.02.2018 01:00:00 -24,5 -27,0 9 5 SSW 1049,4 10
25.02.2018 00:00:00 -28,4 -31,4 9 5 SSW 1049,7 10
24.02.2018 23:00:00 -28,1 -31,0 5 3 S 1049,5 10
24.02.2018 22:00:00 -29,5 -32,6 11 6 SSW 1049,6 10
24.02.2018 21:00:00 -30,7 -33,8 8 4 SSW 1049,6 10
24.02.2018 20:00:00 -28,8 -32,0 8 4 SSW 1048,9 10
24.02.2018 19:00:00 -30,3 -33,6 8 4 SSW 1048,7 10
24.02.2018 18:00:00 -28,4 -31,4 8 4 SSW 1048,0 1,1
24.02.2018 17:00:00 -26,4 -29,2 2 1 WSW 1047,6 0,8
24.02.2018 16:00:00 -21,2 -23,7 4 2 N 1046,4 10
24.02.2018 15:00:00 -19,3 -21,5 5 3 N 1045,9 10
24.02.2018 14:00:00 -18,4 -20,6 2 1 N 1045,4 10
24.02.2018 13:00:00 -18,9 -20,9 0 0 N 1045,1 10
24.02.2018 12:00:00 -19,8 -21,9 0 0 N 1045,1 10
24.02.2018 11:00:00 -21,1 -23,4 0 0 N 1045,0 10
24.02.2018 10:00:00 -22,4 -24,8 2 1 - 1044,6 10
24.02.2018 09:00:00 -23,9 -26,2 4 2 WSW 1044,2 10
24.02.2018 08:00:00 -28,0 -31,2 2 1 W 1044,3 10
24.02.2018 07:00:00 -24,5 -27,1 4 2 - 1043,3 10
24.02.2018 06:00:00 -23,5 -26,0 0 0 N 1042,5 10
24.02.2018 05:00:00 -26,5 -29,3 0 0 N 1041,9 10
24.02.2018 04:00:00 -22,6 -25,0 0 0 N 1040,9 7
24.02.2018 03:00:00 -23,5 -25,8 4 2 WSW 1040,7 6
24.02.2018 02:00:00 -23,4 -25,7 4 2 - 1040,2 2,7
24.02.2018 01:00:00 -24,2 -26,9 4 2 W 1040,1 0,5
24.02.2018 00:00:00 -24,7 -27,1 0 0 N 1039,9 10
23.02.2018 23:00:00 -23,8 -25,9 0 0 N 1039,6 10
23.02.2018 22:00:00 -26,0 -28,6 2 1 SSW 1039,4 10
23.02.2018 21:00:00 -22,8 -25,0 5 3 SW 1038,6 10
23.02.2018 20:00:00 -22,5 -24,7 4 2 - 1038,1 10
23.02.2018 19:00:00 -22,8 -25,3 8 4 SW 1038,0 10
23.02.2018 18:00:00 -19,5 -21,4 4 2 WSW 1037,3 10
23.02.2018 17:00:00 -18,5 -20,7 5 3 SE 1037,0 10
23.02.2018 16:00:00 -15,6 -17,8 5 3 SSE 1036,5 10
23.02.2018 15:00:00 -13,9 -16,4 5 3 E 1036,0 10
23.02.2018 14:00:00 -12,4 -14,8 0 0 N 1035,7 10
23.02.2018 13:00:00 -12,4 -15,8 8 4 SE 1035,6 10
23.02.2018 12:00:00 -13,1 -16,3 4 2 S 1035,5 7
23.02.2018 11:00:00 -13,3 -15,9 8 4 E 1035,3 10
23.02.2018 10:00:00 -12,9 -15,0 5 3 E 1034,8 8
23.02.2018 09:00:00 -12,4 -14,1 4 2 - 1034,4 5
23.02.2018 08:00:00 -12,8 -14,4 8 4 ESE 1034,2 4,3
23.02.2018 07:00:00 -12,6 -14,0 8 4 E 1033,7 2,3
23.02.2018 06:00:00 -11,7 -12,9 5 3 ENE 1033,1 3,1
23.02.2018 05:00:00 -11,0 -12,2 5 3 NE 1032,6 1,1
23.02.2018 04:00:00 -11,2 -12,2 8 4 NE 1032,3 10
23.02.2018 03:00:00 -11,6 -12,9 5 3 NNE 1032,1 5
23.02.2018 02:00:00 -12,0 -13,4 5 3 - 1031,8 3,9
23.02.2018 01:00:00 -12,2 -13,8 8 4 NE 1031,3 8
23.02.2018 00:00:00 -11,8 -13,7 2 1 - 1030,6 4,9
22.02.2018 23:00:00 -12,4 -14,1 0 0 N 1030,3 10
22.02.2018 22:00:00 -12,5 -14,6 4 2 SE 1029,9 10
22.02.2018 21:00:00 -13,6 -15,7 4 2 - 1029,9 10
22.02.2018 20:00:00 -17,9 -19,9 4 2 - 1030,0 10
22.02.2018 19:00:00 -18,9 -20,8 8 4 SSE 1030,0 10
22.02.2018 18:00:00 -18,8 -20,4 4 2 W 1029,9 10
22.02.2018 17:00:00 -19,8 -21,5 4 2 S 1029,6 10
22.02.2018 16:00:00 -15,9 -18,6 0 0 N 1028,7 10
22.02.2018 15:00:00 -14,8 -18,7 0 0 N 1028,9 10
22.02.2018 14:00:00 -12,3 -16,8 5 3 - 1028,3 10
22.02.2018 13:00:00 -15,8 -20,2 11 6 SW 1028,6 10
22.02.2018 12:00:00 -12,4 -18,2 4 2 S 1028,2 10
22.02.2018 11:00:00 -15,1 -20,9 9 5 SSW 1028,1 10
22.02.2018 10:00:00 -20,0 -24,1 11 6 SW 1028,8 10
22.02.2018 09:00:00 -21,8 -25,8 18 10 SSW 1028,6 10
22.02.2018 08:00:00 -21,1 -24,8 13 7 SSW 1028,1 10
22.02.2018 07:00:00 -22,2 -26,0 11 6 SSW 1028,0 10
22.02.2018 06:00:00 -23,7 -27,3 18 10 SSW 1028,3 10
22.02.2018 05:00:00 -22,1 -26,1 15 8 SSW 1028,2 10
22.02.2018 04:00:00 -22,8 -25,6 9 5 SSW 1028,3 10
22.02.2018 03:00:00 -23,1 -26,1 13 7 SSW 1027,8 10
22.02.2018 02:00:00 -21,5 -24,9 16 9 SSW 1027,5 10
22.02.2018 01:00:00 -22,5 -24,9 15 8 SSW 1027,6 10
22.02.2018 00:00:00 -22,7 -25,1 15 8 SSW 1027,5 10
21.02.2018 23:00:00 -24,3 -27,2 13 7 SSW 1027,7 10
21.02.2018 22:00:00 -23,6 -25,9 15 8 SSW 1027,1 10
21.02.2018 21:00:00 -22,3 -24,7 15 8 SW 1026,6 10
21.02.2018 20:00:00 -23,1 -25,4 13 7 SW 1026,1 10
21.02.2018 19:00:00 -21,0 -23,1 15 8 SW 1025,6 10
21.02.2018 18:00:00 -20,5 -22,5 16 9 SW 1025,0 10
21.02.2018 17:00:00 -20,0 -22,3 16 9 SSW 1024,7 10
21.02.2018 16:00:00 -19,8 -21,9 13 7 SW 1025,0 10
21.02.2018 15:00:00 -19,4 -21,4 15 8 SW 1024,8 10
21.02.2018 14:00:00 -19,2 -21,1 11 6 SW 1025,0 10
21.02.2018 13:00:00 -20,1 -22,1 8 4 SW 1025,3 10
21.02.2018 12:00:00 -21,8 -24,2 15 8 SW 1025,6 10
21.02.2018 11:00:00 -23,3 -25,8 16 9 SSW 1026,0 10
21.02.2018 10:00:00 -23,8 -26,1 18 10 SSW 1026,3 10
21.02.2018 09:00:00 -25,2 -27,9 16 9 SW 1027,1 10
21.02.2018 08:00:00 -25,1 -27,7 15 8 SSW 1027,3 10
21.02.2018 07:00:00 -24,7 -27,3 16 9 SSW 1027,4 10
21.02.2018 06:00:00 -24,2 -26,7 15 8 SSW 1028,0 10
21.02.2018 05:00:00 -25,1 -27,7 13 7 SW 1028,6 10
21.02.2018 04:00:00 -24,2 -26,7 13 7 SW 1028,8 10
21.02.2018 03:00:00 -24,2 -26,7 15 8 SSW 1029,2 10
21.02.2018 02:00:00 -21,5 -23,6 15 8 SW 1029,1 10
21.02.2018 01:00:00 -22,8 -25,2 15 8 SW 1029,9 10
21.02.2018 00:00:00 -22,0 -24,2 13 7 SW 1030,0 10
20.02.2018 23:00:00 -21,9 -24,3 9 5 SW 1030,1 10
20.02.2018 22:00:00 -19,4 -21,3 11 6 SSW 1030,3 10
20.02.2018 21:00:00 -19,3 -21,3 13 7 SW 1030,5 10
20.02.2018 20:00:00 -17,3 -19,1 8 4 SSW 1030,3 10
20.02.2018 19:00:00 -18,0 -19,8 9 5 SW 1030,6 10
20.02.2018 18:00:00 -19,5 -21,2 8 4 S 1030,8 10
20.02.2018 17:00:00 -20,1 -21,8 8 4 SSW 1031,1 10
20.02.2018 16:00:00 -17,9 -20,1 5 3 W 1030,9 10
20.02.2018 15:00:00 -14,5 -16,7 5 3 W 1030,8 10
20.02.2018 14:00:00 -14,1 -16,4 0 0 N 1031,1 10
20.02.2018 13:00:00 -14,0 -17,0 0 0 N - 10
20.02.2018 12:00:00 -12,1 -14,8 0 0 N 1031,1 10
20.02.2018 11:00:00 -14,0 -16,5 0 0 N 1031,1 10
20.02.2018 10:00:00 -15,2 -17,3 0 0 N 1031,2 7
20.02.2018 09:00:00 -15,9 -17,7 0 0 N 1031,0 6
20.02.2018 08:00:00 -16,3 -18,0 0 0 N 1030,8 6
20.02.2018 07:00:00 -16,1 -17,9 0 0 N 1030,6 3,5
20.02.2018 06:00:00 -16,1 -17,8 0 0 N 1030,7 6
20.02.2018 05:00:00 -16,5 -18,2 0 0 N 1030,8 10
20.02.2018 04:00:00 -16,7 -18,5 0 0 N 1030,8 10
20.02.2018 03:00:00 -17,5 -19,3 4 2 - 1031,4 10
20.02.2018 02:00:00 -17,3 -19,1 8 4 SSW 1031,7 10
20.02.2018 01:00:00 -17,0 -18,8 5 3 SSW 1031,7 10
20.02.2018 00:00:00 -17,9 -19,8 5 3 SSW 1032,0 10
19.02.2018 23:00:00 -17,4 -19,2 5 3 SSW 1032,0 10
19.02.2018 22:00:00 -17,6 -19,4 13 7 SSW 1032,0 10
19.02.2018 21:00:00 -18,2 -20,1 11 6 SSW 1032,2 10
19.02.2018 20:00:00 -21,3 -23,4 11 6 SW 1032,9 10
19.02.2018 19:00:00 -21,6 -23,7 0 0 N 1033,1 10
19.02.2018 18:00:00 -21,6 -23,7 11 6 SSW 1033,0 10

tt = Température de l'air
td = dewpoint
ff = Vitesse du vent
dd = Direction du vent
ppp = reduced air pressure
vv = visibility

stations d'obs. à proximité